This is the latest recevied weather packets stored in our database for station/object SP4FDH-13. If no packets are shown the sender has not sent any weather packets the latest 10 day(s).
| Time | Temp. | Humidity | Pressure | Rain* | Wind** | Luminosity | Snow |
|---|---|---|---|---|---|---|---|
| 1777810618 | 31.11° C | 20% | 1011.5 hPa | - | - | - | - |
| 1777810044 | 31.11° C | 19% | 1011.6 hPa | - | - | - | - |
| 1777809469 | 30° C | 20% | 1011.6 hPa | - | - | - | - |
| 1777808890 | 30.56° C | 20% | 1011.7 hPa | - | - | - | - |
| 1777808309 | 30.56° C | 20% | 1011.8 hPa | - | - | - | - |
| 1777807733 | 30.56° C | 20% | 1012 hPa | - | - | - | - |
| 1777807156 | 30.56° C | 21% | 1012.1 hPa | - | - | - | - |
| 1777806579 | 30.56° C | 21% | 1012.2 hPa | - | - | - | - |
| 1777806002 | 30° C | 22% | 1012.5 hPa | - | - | - | - |
| 1777805426 | 29.44° C | 22% | 1012.4 hPa | - | - | - | - |
| 1777804850 | 28.89° C | 23% | 1012.5 hPa | - | - | - | - |
| 1777804274 | 28.89° C | 22% | 1012.5 hPa | - | - | - | - |
| 1777803698 | 30° C | 22% | 1012.7 hPa | - | - | - | - |
| 1777803121 | 29.44° C | 23% | 1012.9 hPa | - | - | - | - |
| 1777802545 | 30° C | 23% | 1013 hPa | - | - | - | - |
| 1777801968 | 29.44° C | 23% | 1013 hPa | - | - | - | - |
| 1777801393 | 28.89° C | 25% | 1013.1 hPa | - | - | - | - |
| 1777800817 | 30° C | 24% | 1013.2 hPa | - | - | - | - |
| 1777800241 | 30° C | 24% | 1013.4 hPa | - | - | - | - |
| 1777799665 | 29.44° C | 23% | 1013.4 hPa | - | - | - | - |
| 1777799091 | 30° C | 24% | 1013.6 hPa | - | - | - | - |
| 1777798515 | 29.44° C | 25% | 1013.7 hPa | - | - | - | - |
| 1777797939 | 30° C | 24% | 1013.7 hPa | - | - | - | - |
| 1777797364 | 29.44° C | 26% | 1013.9 hPa | - | - | - | - |
| 1777796788 | 28.89° C | 25% | 1013.9 hPa | - | - | - | - |
* Rain since midnight (hover to see other rain measurements)
** Current wind speed in m/s (hover to see current wind gust speed)